[[{"header":{"parameterUnit":"m.s-1","parameterCategory":1,"la1":30.2991,"la2":30.254,"lo1":-89.0895,"lo2":-89.0444,"dy":0.0017,"dx":0.0017,"nx":28,"ny":28,"refTime":"2023-10-20T09:00:00:Z","depth":0,"parameterNumber":2,"parameterNumberName":"U-component_of_WINDS"},"data":[0,0,0,0,0,0,0,0,0,0,0,0,0,0,0,0,0,0,0,0,0,0,0,0,0,0,0,0,0,0,0,0,0,0,0,0,0,0,0,0,0,0,0,0,0,0,0,0,0,0,0,0,0,0,0,0,0,0,4.2758,4.2759,0,4.2885,4.2887,4.2888,4.2844,4.2841,4.2839,4.2836,4.2967,4.2973,4.2979,0,0,0,0,0,0,0,0,0,0,0,0,0,4.2475,4.2481,4.2757,4.2759,4.2761,4.2885,4.2887,4.2888,4.2845,4.2841,4.2838,4.2835,4.2965,4.2973,4.298,0,0,0,0,0,0,0,0,0,0,0,0,0,4.26,4.2483,4.2757,4.2754,4.2755,4.2885,4.2887,4.2889,4.2845,4.2841,4.2837,4.2833,4.2963,4.2972,4.2981,4.3122,0,0,4.3009,4.3013,0,0,0,0,0,0,0,0,4.2593,4.261,4.2753,4.2754,4.2756,4.2844,4.2835,4.2967,4.2847,4.2811,4.2836,4.2831,4.293,4.2942,4.2975,4.3128,4.3134,4.301,4.3015,4.3019,4.3022,0,0,0,0,0,0,0,4.2584,4.2605,4.2808,4.2755,4.2757,4.2746,4.2759,4.286,4.2893,4.2814,4.2811,4.2827,4.293,4.2966,4.2978,4.3136,4.301,4.3018,4.3023,4.3027,4.3409,4.3414,0,0,0,0,0,0,4.2575,4.2598,4.2804,4.2812,4.2662,4.2754,4.2769,4.282,4.2891,4.2898,4.283,4.2824,4.2952,4.2967,4.2982,4.3151,4.3019,4.3028,4.3033,4.3405,4.341,4.3415,0,0,0,0,0,0,4.2569,4.2594,4.2799,4.2704,4.2729,4.2764,4.2822,4.2825,4.2861,4.2904,4.2909,4.2861,4.295,4.2969,4.3087,4.3155,4.3032,4.304,4.3399,4.3406,4.3413,4.349,0,0,0,0,0,0,4.2561,4.2592,4.2646,4.2706,4.2735,4.2902,4.2826,4.283,4.2877,4.287,4.2934,4.2941,4.2948,4.3074,4.3096,4.3165,4.3047,4.3393,4.3402,4.3411,4.3481,4.3499,4.3513,0,0,0,0,0,4.2551,4.2663,4.2649,4.2674,4.2803,4.2906,4.2923,4.2928,4.2883,4.2937,4.2964,4.2939,4.3144,4.3086,4.3111,4.3184,4.3389,4.34,4.341,4.3474,4.3495,4.3513,0,0,0,0,0,0,4.2611,4.2671,4.2656,4.279,4.2843,4.2898,4.2967,4.2951,4.3018,4.3009,4.3013,4.3028,4.3149,4.3178,4.3113,4.3323,4.3259,4.3275,4.33,4.332,4.3336,4.3326,4.3055,0,0,0,0,0,4.264,4.2719,4.2767,4.2881,4.2908,4.2933,4.2978,4.2978,4.3033,4.3056,4.3091,4.3146,4.3222,4.3273,4.3346,4.3485,4.3498,4.3548,4.3563,4.3576,4.359,4.3665,4.3687,4.345,4.345,4.345,0,0,4.2701,4.2743,4.2792,4.2894,4.2935,4.3016,4.2953,4.3041,4.3101,4.3069,4.3182,4.3211,4.3272,4.3401,4.3459,4.3429,4.3658,4.359,4.36,4.3606,4.3678,4.37,4.372,4.3457,4.3456,4.3454,0,0,4.2852,4.2892,4.2991,4.3033,4.3096,4.3112,4.3135,4.3193,4.321,4.3324,4.3301,4.3372,4.3504,4.3549,4.3588,4.3755,4.3734,4.3779,4.3862,4.3935,4.3953,4.397,4.4028,4.405,4.3792,4.3792,4.3793,0,4.2919,4.3041,4.3044,4.3135,4.3179,4.3153,4.3253,4.3294,4.3377,4.3409,4.3373,4.3537,4.3577,4.3715,4.3755,4.3789,4.3815,4.3771,4.395,4.3967,4.3983,4.4038,4.4061,4.3797,4.3797,4.3796,4.3796,0,4.312,4.3204,4.3276,4.3357,4.341,4.3505,4.3522,4.3575,4.357,4.359,4.3705,4.3751,4.3832,4.3865,4.3861,4.4003,4.3982,4.3949,4.3885,4.401,4.4063,4.4084,4.3805,4.3803,4.3801,4.38,0,0,4.3313,4.3393,4.342,4.3455,4.3522,4.3587,4.368,4.3759,4.3804,4.3863,4.394,4.4052,4.4021,4.4066,4.4067,4.4131,4.4259,4.409,4.4091,4.4119,4.4416,4.4441,4.4465,4.4245,4.4249,4.4253,4.4411,0,4.3469,4.3632,4.3638,4.3787,4.3864,4.384,4.3921,4.3971,4.3991,4.406,4.4082,4.4161,4.4115,4.4141,4.4204,4.423,4.4319,4.4219,4.4317,4.4321,4.4302,4.4493,4.4519,4.4666,4.4432,4.4435,4.4438,0,4.3673,4.3737,4.3894,4.3948,4.3981,4.4054,4.4125,4.4192,4.4247,4.4257,4.4307,4.4298,4.4393,4.4326,4.4456,4.4388,4.4428,4.4447,4.4453,4.4462,4.4386,4.4506,4.4714,4.4735,4.447,4.4468,4.4465,0,4.3797,4.3922,4.4032,4.4063,4.413,4.4181,4.4211,4.4262,4.4309,4.4372,4.4402,4.4476,4.4516,4.4573,4.4584,4.4534,4.4714,4.4648,4.4724,4.4724,4.4763,4.476,4.4979,4.479,4.479,4.4789,4.4789,0,4.3971,4.4067,4.4088,4.4156,4.4263,4.4268,4.4374,4.44,4.4446,4.4517,4.4501,4.4569,4.4579,4.4649,4.4658,4.4764,4.4783,4.4793,4.4794,4.4794,4.4793,4.482,4.481,4.4795,4.4794,4.4793,4.4792,0,4.4127,4.4145,4.4263,4.4316,4.4331,4.4408,4.4453,4.4517,4.4536,4.4626,4.4648,4.4677,4.4758,4.4775,4.4872,4.4878,4.5003,4.4994,4.4984,4.4983,4.5058,4.505,4.5302,4.5334,4.5125,4.5127,4.5129,0,4.4236,4.431,4.437,4.4417,4.4449,4.4525,4.4572,4.458,4.4629,4.4697,4.4753,4.4833,4.4897,4.5028,4.5057,4.5131,4.5123,4.5206,4.5134,4.5131,4.5123,4.5119,4.5125,4.522,4.5222,4.5224,4.5225,0,4.4427,4.4433,4.4501,4.4573,4.463,4.4687,4.4741,4.478,4.4795,4.4851,4.4934,4.4984,4.5082,4.5161,4.5234,4.5264,4.5248,4.5248,4.5269,4.527,4.526,4.5265,4.5021,4.5242,4.524,4.5239,4.5238,4.5238,4.4563,4.4627,4.4679,4.4756,4.4797,4.4848,4.491,4.4936,4.5005,4.5085,4.5085,4.5176,4.5228,4.5324,4.536,4.543,4.5404,4.5435,4.5443,4.545,4.5457,4.525,4.5443,4.5443,4.5443,4.5442,4.5442,0,4.4752,4.4785,4.4855,4.4931,4.4991,4.4969,4.5028,4.508,4.5159,4.5209,4.5272,4.5367,4.5443,4.5478,4.5553,4.5603,4.5597,4.5622,4.5618,4.5625,4.5476,4.545,4.5626,4.5625,4.5625,4.5625,4.5625,4.5625,4.4858,4.4964,4.4975,4.5102,4.5133,4.5221,4.5256,4.5303,4.5342,4.5449,4.5512,4.5534,4.5578,4.5656,4.5724,4.5733,4.5761,4.579,4.5794,4.5654,4.5636,4.5618,4.5593,4.5796,4.5796,4.5937,4.5938,4.5939]},{"header":{"parameterUnit":"m.s-1","parameterCategory":1,"la1":30.2991,"la2":30.254,"lo1":-89.0895,"lo2":-89.0444,"dy":0.0017,"dx":0.0017,"nx":28,"ny":28,"refTime":"2023-10-20T09:00:00:Z","depth":0,"parameterNumber":3,"parameterNumberName":"V-component_of_WINDS"},"data":[0,0,0,0,0,0,0,0,0,0,0,0,0,0,0,0,0,0,0,0,0,0,0,0,0,0,0,0,0,0,0,0,0,0,0,0,0,0,0,0,0,0,0,0,0,0,0,0,0,0,0,0,0,0,0,0,0,0,1.319,1.3191,0,1.3239,1.3239,1.324,1.3241,1.324,1.324,1.3239,1.3287,1.3289,1.3291,0,0,0,0,0,0,0,0,0,0,0,0,0,1.3097,1.3098,1.319,1.3191,1.3192,1.3239,1.3239,1.324,1.3241,1.324,1.3239,1.3239,1.3286,1.3289,1.3291,0,0,0,0,0,0,0,0,0,0,0,0,0,1.314,1.3099,1.319,1.3198,1.3199,1.3238,1.3239,1.324,1.3241,1.324,1.3239,1.3238,1.3286,1.3288,1.3291,1.3326,0,0,1.3299,1.3301,0,0,0,0,0,0,0,0,1.3138,1.3144,1.3196,1.3197,1.3199,1.3233,1.3224,1.3269,1.3241,1.3225,1.3239,1.3238,1.327,1.3274,1.3285,1.3328,1.333,1.33,1.3301,1.3303,1.3303,0,0,0,0,0,0,0,1.3135,1.3142,1.3209,1.3197,1.3198,1.3198,1.3203,1.3232,1.3252,1.3226,1.3227,1.3232,1.327,1.3282,1.3286,1.3331,1.33,1.3302,1.3304,1.3305,1.3404,1.3405,0,0,0,0,0,0,1.3131,1.3139,1.3208,1.3211,1.3165,1.32,1.3206,1.3223,1.3251,1.3255,1.3233,1.3232,1.3278,1.3282,1.3287,1.3329,1.3303,1.3305,1.3307,1.3403,1.3404,1.3405,0,0,0,0,0,0,1.3128,1.3137,1.3206,1.3175,1.3184,1.3203,1.3221,1.3224,1.3236,1.3256,1.326,1.3242,1.3277,1.3284,1.3316,1.3331,1.3306,1.3309,1.3402,1.3403,1.3404,1.3414,0,0,0,0,0,0,1.3126,1.3136,1.315,1.3175,1.3185,1.3235,1.3222,1.3226,1.3241,1.324,1.3265,1.3269,1.3277,1.3312,1.3319,1.3334,1.3311,1.34,1.3402,1.3404,1.3412,1.3416,1.3418,0,0,0,0,0,1.3122,1.3151,1.3151,1.3159,1.3204,1.3236,1.3241,1.3251,1.3242,1.3256,1.3269,1.3268,1.3328,1.3315,1.3323,1.334,1.3399,1.3402,1.3404,1.3411,1.3415,1.3418,0,0,0,0,0,0,1.3127,1.3154,1.3155,1.3192,1.3212,1.3236,1.3254,1.3255,1.3276,1.3275,1.3285,1.329,1.3323,1.3334,1.3319,1.3374,1.3363,1.3367,1.3365,1.3369,1.3372,1.3369,1.3313,0,0,0,0,0,1.3132,1.3156,1.3179,1.321,1.3219,1.3235,1.3249,1.3254,1.3275,1.3283,1.3298,1.3317,1.334,1.3355,1.3378,1.3414,1.3419,1.3429,1.3432,1.3434,1.3437,1.3456,1.346,1.3412,1.3412,1.3412,0,0,1.3143,1.3161,1.3176,1.3211,1.3227,1.3251,1.3242,1.3268,1.3285,1.3286,1.3318,1.333,1.3352,1.3386,1.3402,1.3397,1.3451,1.3437,1.3438,1.3441,1.3459,1.3463,1.3467,1.3414,1.3413,1.3413,0,0,1.3176,1.3193,1.322,1.3235,1.3259,1.3269,1.3275,1.3299,1.3307,1.3339,1.334,1.336,1.34,1.3415,1.3428,1.3465,1.3465,1.3472,1.3487,1.3505,1.3509,1.3513,1.3525,1.353,1.3475,1.3475,1.3475,0,1.3187,1.3224,1.3233,1.3259,1.3274,1.3276,1.3303,1.3317,1.3347,1.3357,1.335,1.34,1.3415,1.3452,1.3461,1.3471,1.3478,1.3469,1.3508,1.3512,1.3515,1.3527,1.3532,1.3476,1.3476,1.3476,1.3475,0,1.3236,1.3261,1.328,1.3309,1.3326,1.3352,1.3364,1.338,1.3383,1.3393,1.3425,1.3443,1.3468,1.3477,1.3481,1.3515,1.3511,1.3506,1.3495,1.352,1.3531,1.3536,1.3477,1.3476,1.3476,1.3476,0,0,1.3274,1.3307,1.3313,1.3326,1.3351,1.3371,1.3396,1.3421,1.3434,1.3454,1.3475,1.3508,1.3504,1.3518,1.3523,1.3539,1.3566,1.3533,1.3533,1.3538,1.3603,1.3607,1.3612,1.3566,1.3567,1.3567,1.3601,0,1.331,1.3356,1.3364,1.3404,1.3427,1.3429,1.3451,1.3468,1.3478,1.3498,1.3508,1.3531,1.3524,1.3532,1.3548,1.356,1.3579,1.3557,1.3585,1.3586,1.358,1.3618,1.3622,1.3653,1.3606,1.3607,1.3607,0,1.3358,1.3379,1.3421,1.3442,1.3452,1.3472,1.3495,1.3515,1.3534,1.3539,1.3555,1.3558,1.3583,1.357,1.3605,1.359,1.3601,1.3608,1.361,1.3613,1.3598,1.3622,1.3663,1.3668,1.3615,1.3614,1.3613,0,1.3381,1.3419,1.345,1.346,1.3486,1.35,1.3511,1.3529,1.3543,1.3563,1.3572,1.3594,1.3606,1.3623,1.3631,1.3621,1.3665,1.3653,1.367,1.3669,1.3679,1.3679,1.3723,1.3687,1.3686,1.3686,1.3686,0,1.3419,1.3445,1.346,1.3479,1.3507,1.3516,1.3543,1.3554,1.357,1.359,1.3592,1.361,1.362,1.3639,1.3646,1.3673,1.3678,1.3683,1.3685,1.3683,1.3682,1.3691,1.3689,1.3688,1.3687,1.3687,1.3687,0,1.345,1.3462,1.3494,1.3516,1.3521,1.3541,1.3559,1.3576,1.3585,1.361,1.3617,1.3631,1.3653,1.3663,1.3691,1.3695,1.3726,1.3726,1.372,1.3721,1.3737,1.3735,1.3788,1.3795,1.3754,1.3755,1.3755,0,1.3475,1.3494,1.3517,1.3531,1.3543,1.3565,1.3579,1.3587,1.3602,1.3624,1.3639,1.3662,1.3681,1.3717,1.3729,1.375,1.375,1.3767,1.3753,1.3751,1.375,1.3749,1.375,1.377,1.377,1.3771,1.3771,0,1.3516,1.352,1.3541,1.3563,1.358,1.3598,1.3616,1.3627,1.3638,1.3654,1.3677,1.3692,1.372,1.3742,1.3764,1.3774,1.3774,1.3775,1.378,1.3779,1.3774,1.3776,1.3727,1.3774,1.3774,1.3774,1.3773,1.3773,1.3544,1.3561,1.358,1.3603,1.3617,1.3633,1.365,1.366,1.368,1.3705,1.3708,1.3733,1.375,1.3779,1.379,1.3809,1.3804,1.3812,1.3813,1.3815,1.3816,1.3771,1.3813,1.3813,1.3813,1.3812,1.3812,0,1.3585,1.3597,1.3618,1.3642,1.3659,1.3658,1.3677,1.3691,1.3713,1.3729,1.3748,1.3774,1.3795,1.3809,1.383,1.3842,1.3842,1.3847,1.3847,1.3849,1.3819,1.3812,1.3847,1.3847,1.3847,1.3847,1.3847,1.3847,1.3609,1.3637,1.3643,1.3679,1.369,1.3715,1.3725,1.374,1.3753,1.3782,1.38,1.3808,1.3823,1.3845,1.3864,1.3867,1.3875,1.388,1.3883,1.3855,1.3851,1.3848,1.3842,1.3881,1.3882,1.3911,1.3911,1.3911]}]]